Total_Precipitation_Accumulation
1.51 1.80 2.31 3.07 4.03 4.81 5.01 4.48 3.94 3.54 3.02 2.55 1.95 1.54 1.33 1.20 1.00 0.83 0.70 0.62 0.57 0.56 0.58 0.51 0.50 0.48 0.49 0.49 0.52 0.59 0.64 0.65 0.72 0.78 0.76 0.70 0.64 0.69 0.68 0.70 0.78 0.75 0.75
1.68 2.22 3.13 3.73 3.87 3.87 3.47 3.01 2.70 2.46 2.04 1.60 1.27 1.08 0.98 0.81 0.65 0.57 0.54 0.47 0.42 0.41 0.39 0.38 0.38 0.37 0.37 0.39 0.42 0.46 0.46 0.46 0.55 0.63 0.67 0.59 0.54 0.50 0.44 0.53 0.51 0.54 0.73
1.81 2.54 3.07 3.10 2.67 2.31 2.09 1.95 1.87 1.53 1.35 1.21 1.04 0.90 0.82 0.66 0.55 0.50 0.43 0.35 0.30 0.29 0.29 0.28 0.28 0.32 0.34 0.37 0.40 0.39 0.39 0.38 0.39 0.47 0.61 0.58 0.51 0.43 0.39 0.42 0.45 0.53 0.62
1.28 1.67 1.88 1.70 1.61 1.64 1.67 1.74 1.64 1.30 1.13 0.99 0.83 0.66 0.57 0.49 0.43 0.39 0.36 0.32 0.26 0.23 0.21 0.20 0.20 0.21 0.27 0.35 0.33 0.37 0.37 0.35 0.29 0.32 0.41 0.46 0.49 0.50 0.44 0.41 0.42 0.50 0.56
0.73 0.79 0.86 0.90 0.97 1.04 1.24 1.43 1.49 1.35 1.11 0.96 0.84 0.74 0.59 0.52 0.47 0.44 0.42 0.38 0.31 0.26 0.23 0.22 0.20 0.18 0.19 0.24 0.26 0.34 0.38 0.38 0.32 0.31 0.34 0.37 0.39 0.42 0.43 0.35 0.33 0.39 0.38
0.60 0.60 0.57 0.61 0.71 0.81 0.93 1.10 1.29 1.36 1.22 1.05 0.93 0.82 0.70 0.62 0.54 0.48 0.44 0.39 0.34 0.30 0.24 0.23 0.22 0.21 0.20 0.19 0.18 0.23 0.30 0.37 0.38 0.33 0.31 0.38 0.40 0.40 0.42 0.31 0.25 0.29 0.25
0.61 0.61 0.54 0.45 0.46 0.55 0.65 0.68 0.80 0.94 0.96 0.89 0.82 0.79 0.75 0.62 0.49 0.41 0.35 0.35 0.31 0.28 0.24 0.22 0.22 0.22 0.23 0.22 0.20 0.19 0.22 0.29 0.34 0.33 0.33 0.34 0.34 0.40 0.42 0.33 0.27 0.31 0.31
0.38 0.40 0.35 0.28 0.23 0.27 0.39 0.44 0.53 0.62 0.71 0.70 0.65 0.61 0.59 0.47 0.40 0.44 0.34 0.31 0.34 0.34 0.30 0.23 0.20 0.20 0.20 0.21 0.21 0.19 0.21 0.24 0.28 0.29 0.39 0.38 0.30 0.36 0.39 0.40 0.46 0.45 0.47
0.15 0.19 0.22 0.21 0.18 0.19 0.25 0.34 0.44 0.53 0.58 0.61 0.59 0.49 0.45 0.42 0.40 0.39 0.34 0.29 0.35 0.35 0.32 0.26 0.21 0.20 0.20 0.21 0.22 0.21 0.23 0.25 0.28 0.33 0.42 0.44 0.41 0.41 0.42 0.46 0.57 0.64 0.56
0.12 0.12 0.13 0.15 0.13 0.14 0.19 0.29 0.39 0.49 0.51 0.54 0.52 0.44 0.46 0.42 0.40 0.37 0.36 0.35 0.32 0.31 0.29 0.25 0.22 0.21 0.21 0.22 0.23 0.23 0.26 0.29 0.34 0.41 0.47 0.53 0.53 0.53 0.53 0.54 0.62 0.75 0.73
0.08 0.07 0.07 0.10 0.11 0.12 0.14 0.20 0.28 0.36 0.40 0.42 0.43 0.42 0.40 0.37 0.38 0.39 0.37 0.36 0.34 0.33 0.29 0.27 0.24 0.23 0.22 0.24 0.27 0.26 0.25 0.28 0.34 0.40 0.46 0.51 0.58 0.64 0.67 0.71 0.72 0.75 0.86
0.06 0.05 0.05 0.07 0.10 0.12 0.13 0.16 0.20 0.22 0.28 0.31 0.32 0.35 0.36 0.34 0.34 0.34 0.33 0.34 0.33 0.33 0.31 0.30 0.26 0.21 0.19 0.25 0.29 0.29 0.27 0.29 0.33 0.41 0.51 0.53 0.55 0.62 0.70 0.80 0.82 0.84 0.97
0.06 0.06 0.06 0.10 0.13 0.12 0.13 0.17 0.20 0.19 0.22 0.23 0.23 0.27 0.35 0.36 0.34 0.30 0.31 0.32 0.33 0.35 0.32 0.32 0.30 0.26 0.23 0.23 0.26 0.30 0.32 0.37 0.41 0.46 0.53 0.59 0.65 0.68 0.73 0.81 0.83 0.89 1.04
0.07 0.08 0.09 0.11 0.11 0.11 0.13 0.17 0.22 0.26 0.28 0.29 0.29 0.31 0.36 0.39 0.37 0.30 0.30 0.30 0.32 0.34 0.37 0.40 0.41 0.38 0.32 0.29 0.29 0.31 0.33 0.39 0.45 0.54 0.55 0.59 0.68 0.76 0.81 0.88 0.98 1.05 1.13
0.10 0.10 0.13 0.19 0.20 0.21 0.23 0.26 0.31 0.35 0.38 0.41 0.46 0.50 0.52 0.50 0.46 0.43 0.43 0.44 0.44 0.46 0.57 0.60 0.57 0.51 0.44 0.34 0.34 0.37 0.35 0.42 0.44 0.48 0.53 0.54 0.58 0.66 0.77 0.83 0.94 1.10 1.25
0.16 0.17 0.20 0.25 0.24 0.22 0.24 0.27 0.34 0.38 0.40 0.45 0.49 0.54 0.61 0.61 0.57 0.57 0.61 0.63 0.64 0.72 0.77 0.72 0.69 0.67 0.52 0.45 0.41 0.38 0.38 0.41 0.43 0.47 0.53 0.53 0.50 0.50 0.56 0.65 0.78 0.91 1.08
0.16 0.16 0.21 0.23 0.23 0.20 0.20 0.24 0.29 0.37 0.46 0.57 0.65 0.70 0.72 0.73 0.72 0.74 0.80 0.80 0.79 0.80 0.82 0.79 0.76 0.72 0.68 0.55 0.41 0.35 0.35 0.38 0.43 0.47 0.49 0.43 0.37 0.43 0.46 0.51 0.57 0.65 0.75
0.28 0.26 0.28 0.31 0.28 0.23 0.24 0.30 0.38 0.45 0.52 0.57 0.64 0.71 0.79 0.84 0.88 0.96 1.01 1.02 1.00 0.98 0.95 0.88 0.85 0.83 0.77 0.64 0.49 0.44 0.39 0.39 0.41 0.44 0.46 0.44 0.40 0.41 0.47 0.52 0.51 0.51 0.53
0.29 0.34 0.39 0.42 0.35 0.32 0.33 0.39 0.47 0.59 0.65 0.67 0.73 0.79 0.85 0.94 1.00 1.04 1.07 1.12 1.14 1.06 1.02 1.00 0.98 0.95 0.89 0.75 0.55 0.47 0.44 0.48 0.47 0.47 0.49 0.53 0.47 0.42 0.38 0.45 0.46 0.45 0.44
0.37 0.40 0.40 0.40 0.40 0.43 0.47 0.50 0.56 0.67 0.76 0.80 0.80 0.80 0.90 0.98 0.99 0.97 1.01 1.01 1.01 0.94 0.92 0.93 0.96 0.98 0.96 0.84 0.60 0.51 0.47 0.52 0.54 0.59 0.59 0.55 0.45 0.41 0.32 0.37 0.42 0.40 0.39
0.48 0.44 0.42 0.43 0.44 0.43 0.45 0.54 0.61 0.70 0.74 0.75 0.74 0.75 0.81 0.89 0.90 0.92 0.90 0.84 0.80 0.79 0.81 0.84 0.88 0.93 0.91 0.79 0.50 0.42 0.47 0.54 0.59 0.60 0.59 0.59 0.50 0.38 0.30 0.31 0.36 0.35 0.38
0.51 0.45 0.36 0.33 0.35 0.38 0.43 0.51 0.57 0.57 0.60 0.61 0.61 0.60 0.61 0.61 0.62 0.72 0.74 0.74 0.77 0.77 0.79 0.87 0.92 0.95 0.95 0.83 0.58 0.37 0.36 0.46 0.56 0.59 0.62 0.64 0.54 0.43 0.36 0.29 0.27 0.27 0.30
0.43 0.39 0.36 0.33 0.34 0.37 0.43 0.49 0.49 0.50 0.51 0.54 0.54 0.52 0.51 0.56 0.61 0.64 0.61 0.60 0.62 0.61 0.65 0.82 0.94 0.98 0.99 0.89 0.63 0.42 0.33 0.38 0.49 0.59 0.70 0.70 0.58 0.52 0.46 0.37 0.30 0.28 0.28
0.36 0.37 0.38 0.37 0.41 0.44 0.47 0.45 0.43 0.45 0.50 0.52 0.51 0.52 0.51 0.51 0.51 0.56 0.54 0.52 0.51 0.50 0.56 0.75 0.89 0.96 0.97 0.90 0.73 0.56 0.45 0.43 0.49 0.55 0.66 0.73 0.73 0.69 0.62 0.52 0.40 0.31 0.32
0.26 0.27 0.34 0.39 0.43 0.44 0.42 0.42 0.42 0.46 0.47 0.45 0.45 0.43 0.43 0.42 0.40 0.45 0.48 0.43 0.44 0.42 0.43 0.60 0.81 0.88 0.81 0.68 0.54 0.47 0.49 0.48 0.53 0.60 0.76 0.90 0.95 0.97 0.91 0.78 0.65 0.54 0.50
0.24 0.29 0.33 0.38 0.39 0.38 0.37 0.36 0.38 0.45 0.50 0.49 0.44 0.39 0.38 0.38 0.39 0.42 0.43 0.36 0.28 0.25 0.22 0.27 0.42 0.53 0.47 0.39 0.35 0.33 0.34 0.32 0.34 0.46 0.71 0.99 1.09 1.13 1.13 1.03 0.87 0.75 0.69